TimeMDT,TemperatureF,Dew PointF,Humidity,Sea Level PressureIn,VisibilityMPH,Wind Direction,Wind SpeedMPH,Gust SpeedMPH,PrecipitationIn,Events,Conditions,WindDirDegrees,DateUTC
12:15 AM,55.4,48.2,77,30.15,10.0,SSE,8.1,-,N/A,,Scattered Clouds,160,2012-09-27 06:15:00
12:35 AM,55.4,50.0,82,30.15,10.0,SSE,4.6,-,N/A,,Mostly Cloudy,150,2012-09-27 06:35:00
1:15 AM,55.4,50.0,82,30.15,10.0,Calm,Calm,-,N/A,,Mostly Cloudy,0,2012-09-27 07:15:00
1:35 AM,55.4,50.0,82,30.16,10.0,Calm,Calm,-,N/A,,Mostly Cloudy,0,2012-09-27 07:35:00
1:55 AM,55.4,50.0,82,30.16,10.0,Calm,Calm,-,N/A,,Overcast,0,2012-09-27 07:55:00
2:15 AM,55.4,48.2,77,30.17,10.0,Calm,Calm,-,N/A,,Mostly Cloudy,0,2012-09-27 08:15:00
2:35 AM,55.4,48.2,77,30.16,10.0,SSW,3.5,-,N/A,,Clear,200,2012-09-27 08:35:00
2:55 AM,53.6,48.2,82,30.17,10.0,South,4.6,-,N/A,,Clear,170,2012-09-27 08:55:00
3:15 AM,53.6,48.2,82,30.17,10.0,ENE,3.5,-,N/A,,Clear,70,2012-09-27 09:15:00
3:35 AM,51.8,48.2,88,30.17,10.0,East,4.6,-,N/A,,Clear,80,2012-09-27 09:35:00
3:55 AM,53.6,48.2,82,30.17,10.0,Calm,Calm,-,N/A,,Clear,0,2012-09-27 09:55:00
4:15 AM,53.6,48.2,82,30.17,10.0,Calm,Calm,-,N/A,,Clear,0,2012-09-27 10:15:00
4:35 AM,51.8,46.4,82,30.17,10.0,Calm,Calm,-,N/A,,Clear,0,2012-09-27 10:35:00
5:15 AM,51.8,48.2,88,30.19,10.0,ESE,3.5,-,N/A,,Scattered Clouds,120,2012-09-27 11:15:00
5:35 AM,51.8,46.4,82,30.19,10.0,South,6.9,-,N/A,,Clear,170,2012-09-27 11:35:00
5:55 AM,51.8,46.4,82,30.19,10.0,SSE,6.9,-,N/A,,Clear,150,2012-09-27 11:55:00
6:15 AM,50.0,46.4,87,30.19,10.0,Calm,Calm,-,N/A,,Clear,0,2012-09-27 12:15:00
6:50 AM,50.0,46.4,87,30.20,15.0,Calm,Calm,-,N/A,,Partly Cloudy,0,2012-09-27 12:50:00
7:50 AM,50.0,46.4,87,30.21,15.0,Variable,4.6,-,N/A,,Clear,0,2012-09-27 13:50:00
8:50 AM,55.4,48.2,77,30.22,15.0,Calm,Calm,-,N/A,,Clear,0,2012-09-27 14:50:00
9:55 AM,60.8,48.2,63,30.23,15.0,Calm,Calm,-,N/A,,Partly Cloudy,0,2012-09-27 15:55:00
11:50 AM,64.4,50.0,59,30.22,15.0,Variable,4.6,-,N/A,,Partly Cloudy,0,2012-09-27 17:50:00
1:53 PM,69.8,46.4,43,30.19,15.0,Variable,4.6,-,N/A,,Scattered Clouds,0,2012-09-27 19:53:00
2:55 PM,69.8,48.2,46,30.16,15.0,WSW,5.8,-,N/A,,Scattered Clouds,240,2012-09-27 20:55:00
3:53 PM,71.6,48.2,43,30.14,15.0,Variable,3.5,-,N/A,,Scattered Clouds,0,2012-09-27 21:53:00
4:47 PM,71.6,48.2,43,30.14,15.0,Variable,4.6,-,N/A,,Scattered Clouds,0,2012-09-27 22:47:00
5:48 PM,71.6,50.0,46,30.13,15.0,Variable,4.6,-,N/A,,Scattered Clouds,0,2012-09-27 23:48:00
7:51 PM,66.2,51.8,60,30.13,15.0,Calm,Calm,-,N/A,,Scattered Clouds,0,2012-09-28 01:51:00
8:47 PM,64.4,46.4,52,30.14,15.0,Calm,Calm,-,N/A,,Scattered Clouds,0,2012-09-28 02:47:00
9:15 PM,62.6,46.4,55,30.15,10.0,SSE,6.9,-,N/A,,Clear,160,2012-09-28 03:15:00
9:35 PM,62.6,48.2,59,30.15,10.0,ESE,4.6,-,N/A,,Clear,120,2012-09-28 03:35:00
9:55 PM,62.6,48.2,59,30.15,10.0,Calm,Calm,-,N/A,,Clear,0,2012-09-28 03:55:00
10:15 PM,60.8,50.0,68,30.15,10.0,Calm,Calm,-,N/A,,Clear,0,2012-09-28 04:15:00
10:35 PM,57.2,48.2,72,30.16,10.0,NNW,3.5,-,N/A,,Clear,330,2012-09-28 04:35:00
10:55 PM,60.8,44.6,55,30.16,10.0,North,4.6,-,N/A,,Clear,350,2012-09-28 04:55:00
11:15 PM,59.0,44.6,59,30.16,10.0,SSE,3.5,-,N/A,,Clear,150,2012-09-28 05:15:00
11:55 PM,57.2,46.4,67,30.16,10.0,South,6.9,-,N/A,,Clear,170,2012-09-28 05:55:00